Home   Weather   Cluj-Napoca   Past weeks

Flag for Romania Past Weather in Cluj-Napoca, Romania — Yesterday and Last 2 Weeks

50 °F


Feels Like: 49 °F
Forecast: 42 / 50 °F
Wind: 3 mph from Northeast

Location: Cluj Airport-Napoca

Current Time: Oct 22, 2016 at 2:55:06 AM

Latest Report: Oct 22, 2016 at 2:00 AM

Visibility: N/A

Pressure: 29.98 "Hg

Humidity: 76%

Dew Point: 43 °F

Location of Cluj-NapocaLocation

Past Weather in Cluj-Napoca — Graph


Cluj-Napoca Temperature Yesterday

Maximum temperature yesterday: 63 °F (at 3:00 PM)
Minimum temperature yesterday: 41 °F (at 8:00 AM)
Average temperature yesterday: 52 °F

High & Low Weather Summary for the Past Weeks

High63 °F (Oct 21, 3:00 PM)100% (Oct 10, 7:00 AM)30.48 "Hg (Oct 10, 7:00 AM)
Low32 °F (Oct 10, 7:00 AM)39% (Oct 10, 4:30 PM)29.71 "Hg (Oct 12, 1:30 PM)
Average47 °F77%30.11 "Hg
* Reported Oct 7 1:00 AM — Oct 22 1:00 AM, Cluj-Napoca, Weather by CustomWeather, © 2016

Note: Actual official high and low records may vary slightly from our data, if they occured in-between our weather recording intervals... More about our weather records


Cluj-Napoca Weather History for the Previous 24 Hours

Scroll right to see more
Time TempWeatherWind HumidityBarometerVisibility
1:00 AM
Sat, Oct 22
50 °FLight rain. Overcast.6 mph82%29.98 "HgN/A
12:00 AM50 °FOvercast.3 mph82%29.98 "HgN/A
11:30 PM
Fri, Oct 21
50 °FLight rain. Overcast.8 mph82%29.98 "HgN/A
11:00 PM50 °FLight rain. Overcast.7 mph82%29.98 "HgN/A
10:30 PM52 °FLight rain. Passing clouds.6 mph77%29.98 "HgN/A
10:00 PM52 °FLight rain. Passing clouds.7 mph77%29.98 "HgN/A
9:30 PM54 °FLight rain. Passing clouds.6 mph72%29.98 "HgN/A
9:00 PM54 °FLight rain. Passing clouds.6 mph72%29.98 "HgN/A
8:30 PM55 °FPassing clouds.6 mph63%29.98 "HgN/A
8:00 PM55 °FPassing clouds.9 mph63%29.95 "HgN/A
7:30 PM57 °FLight rain. Passing clouds.12 mph59%29.95 "HgN/A
7:00 PM57 °FClear.12 mph59%29.95 "Hg10 mi
6:30 PM59 °FPassing clouds.14 mph55%29.95 "HgN/A
6:00 PM59 °FSunny.12 mph55%29.95 "Hg10 mi
5:30 PM61 °FPassing clouds.10 mph52%29.95 "HgN/A
5:00 PM61 °FSunny.10 mph52%29.95 "Hg10 mi
4:30 PM61 °FSunny.12 mph52%29.95 "Hg10 mi
4:00 PM61 °FSunny.10 mph55%29.95 "Hg10 mi
3:30 PM63 °FSunny.12 mph49%29.95 "Hg10 mi
3:00 PM63 °FSunny.14 mph49%29.98 "Hg10 mi
2:00 PM61 °FSunny.13 mph55%29.98 "Hg10 mi
1:30 PM59 °FSunny.16 mph59%30.01 "Hg10 mi
1:00 PM59 °FSunny.14 mph59%30.01 "Hg10 mi
12:30 PM57 °FSunny.15 mph59%30.01 "Hg10 mi
12:00 PM57 °FSunny.12 mph59%30.04 "Hg10 mi
11:30 AM54 °FSunny.12 mph67%30.04 "Hg10 mi
11:00 AM52 °FPassing clouds.9 mph67%30.04 "HgN/A
10:00 AM48 °FPassing clouds.6 mph76%30.07 "HgN/A
9:30 AM45 °FSunny.7 mph81%30.07 "Hg10 mi
9:00 AM45 °FSunny.9 mph81%30.07 "Hg10 mi
8:30 AM45 °FPassing clouds.9 mph81%30.07 "HgN/A
8:00 AM41 °FSunny.8 mph87%30.04 "Hg10 mi
7:30 AM43 °FClear.7 mph87%30.04 "Hg10 mi
7:00 AM43 °FClear.7 mph81%30.04 "Hg10 mi
6:30 AM43 °FClear.6 mph81%30.07 "Hg10 mi
6:00 AM43 °FClear.7 mph81%30.07 "Hg10 mi
5:30 AM43 °FClear.5 mph81%30.07 "Hg10 mi
5:00 AM43 °FClear.6 mph81%30.07 "Hg10 mi
4:00 AM45 °FClear.6 mph81%30.07 "Hg10 mi
3:00 AM46 °FClear.6 mph76%30.07 "Hg10 mi
2:00 AM46 °FClear.6 mph76%30.07 "Hg10 mi
Weather by CustomWeather, © 2016

See weather overviewHow to use our weather pages